Tracking 23588 objects as of 6-Aug-2021
HD Live streaming from Space Station
objects crossing your sky now

EUTELSAT 1-F4 (ECS 4)

Track EUTELSAT 1-F4 (ECS 4) now!
EUTELSAT 1-F4 (ECS 4) is classified as:


NORAD ID: 18351
Int'l Code: 1987-078B
Perigee: 36,194.8 km
Apogee: 36,291.1 km
Inclination: 15.1 °
Period: 1,459.1 minutes
Semi major axis: 42613 km
RCS: 3.9811 m2 (large)
Launch date: September 16, 1987
Source: European Telecommunications Satellite Organization (EUTE)
Launch site: FRENCH GUIANA (FRGUI)
aabbcc
Your satellite tracking list
Your tracking list is empty




NASA's NSSDC Master Catalog

Two Line Element Set (TLE):
1 18351U 87078B   21217.20739179 -.00000185  00000-0  00000-0 0  9994
2 18351  15.0534 355.4411 0011306  23.7702  12.7454  0.98690501109228
Source of the keplerian elements: AFSPC